Вернуться в каталог

STARLINK-11713

АктивенСвязьVLEO
NORAD 64070·PAYLOAD·🇺🇸 United States

Запущен May 21, 2025 с Cape Canaveral Space Force Station

Loading…

Ближайшие Пролёты (ближайшие 24 часа)

TLE

СвежийSource: CelesTrak SupGP

Эпоха: Sep 15, 2026, 04:01 UTC

1 64070C 25107G   26258.16784722 -.00029842  00000+0 -23173-3 0  2585
2 64070  43.0009  36.2804 0001905 252.2476 201.7145 15.70857718    11

Отслеживайте STARLINK-11713 в реальном времени с AllMySat

Download on the App Store